TimeEDT,TemperatureF,Dew PointF,Humidity,Sea Level PressureIn,VisibilityMPH,Wind Direction,Wind SpeedMPH,Gust SpeedMPH,PrecipitationIn,Events,Conditions,WindDirDegrees,DateUTC
12:15 AM,48.4,41.7,78,30.15,10.0,Calm,Calm,-,N/A,,Clear,0,2013-05-14 04:15:00
12:35 AM,48.4,42.1,79,30.15,10.0,Calm,Calm,-,N/A,,Clear,0,2013-05-14 04:35:00
12:55 AM,48.2,42.1,79,30.15,10.0,Calm,Calm,-,N/A,,Clear,0,2013-05-14 04:55:00
1:15 AM,47.1,42.3,83,30.15,10.0,Calm,Calm,-,N/A,,Clear,0,2013-05-14 05:15:00
1:35 AM,46.9,42.4,84,30.15,10.0,Calm,Calm,-,N/A,,Clear,0,2013-05-14 05:35:00
1:55 AM,45.9,42.1,87,30.16,10.0,Calm,Calm,-,N/A,,Clear,0,2013-05-14 05:55:00
2:15 AM,46.8,43.0,87,30.16,10.0,Calm,Calm,-,N/A,,Clear,0,2013-05-14 06:15:00
2:35 AM,44.4,41.9,91,30.17,10.0,Calm,Calm,-,N/A,,Clear,0,2013-05-14 06:35:00
2:55 AM,45.5,42.3,88,30.17,10.0,Calm,Calm,-,N/A,,Clear,0,2013-05-14 06:55:00
3:15 AM,46.9,41.9,83,30.16,10.0,Calm,Calm,-,N/A,,Clear,0,2013-05-14 07:15:00
3:35 AM,47.7,40.8,77,30.18,10.0,Calm,Calm,-,N/A,,Clear,0,2013-05-14 07:35:00
3:55 AM,47.3,40.8,78,30.18,10.0,Calm,Calm,-,N/A,,Clear,0,2013-05-14 07:55:00
4:15 AM,47.3,40.1,76,30.19,10.0,Calm,Calm,-,N/A,,Clear,0,2013-05-14 08:15:00
4:35 AM,46.6,40.1,78,30.19,10.0,Calm,Calm,-,N/A,,Clear,0,2013-05-14 08:35:00
4:55 AM,46.6,39.9,78,30.19,10.0,Calm,Calm,-,N/A,,Clear,0,2013-05-14 08:55:00
5:15 AM,46.0,39.6,78,30.19,10.0,Calm,Calm,-,N/A,,Clear,0,2013-05-14 09:15:00
5:35 AM,45.7,39.4,79,30.20,10.0,Calm,Calm,-,N/A,,Clear,0,2013-05-14 09:35:00
5:55 AM,44.4,39.6,83,30.20,10.0,Calm,Calm,-,N/A,,Clear,0,2013-05-14 09:55:00
6:15 AM,43.9,39.7,85,30.21,10.0,Calm,Calm,-,N/A,,Clear,0,2013-05-14 10:15:00
6:35 AM,43.2,39.7,88,30.22,10.0,Calm,Calm,-,N/A,,Clear,0,2013-05-14 10:35:00
6:55 AM,43.9,40.3,87,30.23,10.0,Calm,Calm,-,N/A,,Clear,0,2013-05-14 10:55:00
7:15 AM,46.0,42.6,88,30.23,10.0,Calm,Calm,-,N/A,,Clear,0,2013-05-14 11:15:00
7:35 AM,48.4,42.6,80,30.24,10.0,Calm,Calm,-,N/A,,Clear,0,2013-05-14 11:35:00
7:55 AM,51.1,41.2,69,30.24,10.0,NE,3.5,-,N/A,,Clear,50,2013-05-14 11:55:00
8:15 AM,54.0,41.0,62,30.25,10.0,NE,3.5,-,N/A,,Clear,50,2013-05-14 12:15:00
8:35 AM,55.6,39.0,54,30.25,10.0,NE,4.6,-,N/A,,Clear,40,2013-05-14 12:35:00
8:55 AM,57.6,38.3,49,30.25,10.0,NE,6.9,-,N/A,,Clear,40,2013-05-14 12:55:00
9:15 AM,59.4,38.7,46,30.24,10.0,NE,5.8,-,N/A,,Clear,40,2013-05-14 13:15:00
9:35 AM,60.6,37.9,43,30.24,10.0,NE,6.9,-,N/A,,Clear,40,2013-05-14 13:35:00
9:55 AM,61.3,34.5,37,30.25,10.0,ENE,9.2,-,N/A,,Clear,60,2013-05-14 13:55:00
10:15 AM,62.8,35.1,36,30.24,10.0,North,5.8,-,N/A,,Clear,10,2013-05-14 14:15:00
10:35 AM,63.1,33.8,33,30.24,10.0,NE,4.6,-,N/A,,Clear,40,2013-05-14 14:35:00
10:55 AM,63.5,33.3,32,30.25,10.0,Calm,Calm,-,N/A,,Clear,0,2013-05-14 14:55:00
11:15 AM,64.8,34.0,32,30.26,10.0,West,3.5,-,N/A,,Clear,270,2013-05-14 15:15:00
11:35 AM,65.7,33.4,30,30.26,10.0,Calm,Calm,-,N/A,,Clear,0,2013-05-14 15:35:00
11:55 AM,66.4,33.3,29,30.26,10.0,WSW,5.8,-,N/A,,Clear,250,2013-05-14 15:55:00
12:15 PM,66.4,32.7,29,30.26,10.0,NW,4.6,-,N/A,,Clear,310,2013-05-14 16:15:00
12:35 PM,67.5,33.4,28,30.26,10.0,NW,3.5,-,N/A,,Clear,310,2013-05-14 16:35:00
12:55 PM,67.8,33.3,28,30.25,10.0,Calm,Calm,-,N/A,,Clear,0,2013-05-14 16:55:00
1:15 PM,67.5,33.3,28,30.24,10.0,North,4.6,-,N/A,,Clear,360,2013-05-14 17:15:00
1:35 PM,69.1,34.7,28,30.23,10.0,WNW,4.6,-,N/A,,Clear,300,2013-05-14 17:35:00
1:55 PM,69.3,32.9,26,30.22,10.0,SSW,6.9,-,N/A,,Clear,200,2013-05-14 17:55:00
2:15 PM,69.8,33.6,26,30.21,10.0,WSW,5.8,-,N/A,,Clear,250,2013-05-14 18:15:00
2:35 PM,70.7,34.5,26,30.19,10.0,WSW,4.6,-,N/A,,Clear,250,2013-05-14 18:35:00
2:55 PM,71.2,33.4,25,30.19,10.0,West,6.9,-,N/A,,Clear,260,2013-05-14 18:55:00
3:15 PM,70.9,33.1,25,30.19,10.0,WSW,5.8,-,N/A,,Clear,240,2013-05-14 19:15:00
3:35 PM,71.4,34.7,26,30.18,10.0,Calm,Calm,-,N/A,,Clear,0,2013-05-14 19:35:00
3:55 PM,71.6,33.1,24,30.17,10.0,West,3.5,-,N/A,,Clear,260,2013-05-14 19:55:00
4:15 PM,72.0,33.3,24,30.17,10.0,WNW,4.6,-,N/A,,Clear,290,2013-05-14 20:15:00
4:35 PM,72.5,33.4,24,30.16,10.0,SW,6.9,-,N/A,,Clear,230,2013-05-14 20:35:00
4:55 PM,72.9,32.4,23,30.15,10.0,WSW,6.9,-,N/A,,Clear,250,2013-05-14 20:55:00
5:15 PM,73.2,33.4,23,30.15,10.0,SW,6.9,-,N/A,,Clear,220,2013-05-14 21:15:00
5:35 PM,73.2,34.0,24,30.16,10.0,SSW,4.6,-,N/A,,Clear,210,2013-05-14 21:35:00
5:55 PM,73.0,35.2,25,30.15,10.0,South,3.5,-,N/A,,Clear,190,2013-05-14 21:55:00
6:15 PM,73.2,36.5,26,30.15,10.0,SW,5.8,-,N/A,,Clear,220,2013-05-14 22:15:00
6:35 PM,72.3,35.1,26,30.15,10.0,WSW,3.5,-,N/A,,Clear,250,2013-05-14 22:35:00
6:55 PM,71.6,36.7,28,30.15,10.0,SSW,5.8,-,N/A,,Clear,210,2013-05-14 22:55:00
7:15 PM,68.4,42.3,39,30.15,10.0,South,10.4,-,N/A,,Clear,180,2013-05-14 23:15:00
7:35 PM,67.1,43.5,42,30.16,10.0,South,8.1,-,N/A,,Clear,180,2013-05-14 23:35:00
7:55 PM,65.7,43.0,44,30.16,10.0,South,6.9,-,N/A,,Clear,180,2013-05-14 23:55:00
8:15 PM,64.0,43.3,47,30.16,10.0,South,5.8,-,N/A,,Clear,180,2013-05-15 00:15:00
8:35 PM,63.3,42.8,47,30.16,10.0,South,5.8,-,N/A,,Clear,180,2013-05-15 00:35:00
8:55 PM,62.6,42.4,48,30.15,10.0,South,8.1,-,N/A,,Clear,180,2013-05-15 00:55:00
9:15 PM,61.7,42.8,50,30.15,10.0,South,4.6,-,N/A,,Clear,190,2013-05-15 01:15:00
9:35 PM,61.0,43.3,52,30.16,10.0,SSE,4.6,-,N/A,,Clear,160,2013-05-15 01:35:00
9:55 PM,60.8,43.9,54,30.17,10.0,South,4.6,-,N/A,,Clear,170,2013-05-15 01:55:00
10:15 PM,60.1,44.8,57,30.17,10.0,SSW,5.8,-,N/A,,Clear,200,2013-05-15 02:15:00
10:35 PM,58.3,45.5,62,30.16,10.0,SSW,4.6,-,N/A,,Clear,200,2013-05-15 02:35:00
10:55 PM,57.6,46.2,66,30.15,10.0,South,6.9,-,N/A,,Clear,190,2013-05-15 02:55:00
11:15 PM,57.7,46.8,67,30.15,10.0,SSW,4.6,-,N/A,,Clear,210,2013-05-15 03:15:00
11:35 PM,58.1,46.9,66,30.15,10.0,SSW,4.6,-,N/A,,Clear,210,2013-05-15 03:35:00
11:55 PM,57.4,47.7,70,30.15,10.0,SSW,4.6,-,N/A,,Clear,210,2013-05-15 03:55:00